This is the latest recevied weather packets stored in our database for station/object OH2NJR. If no packets are shown the sender has not sent any weather packets the latest 10 day(s).
| Time | Temp. | Humidity | Pressure | Rain* | Wind** | Luminosity | Snow |
|---|---|---|---|---|---|---|---|
| 1777695498 | 5° C | 90% | 1012.1 hPa | 0 mm | - | - | - |
| 1777694338 | 5° C | 90% | 1012.1 hPa | 0 mm | - | - | - |
| 1777693153 | 5° C | 91% | 1012.2 hPa | 0 mm | - | - | - |
| 1777692089 | 5° C | 91% | 1012.3 hPa | 0 mm | - | - | - |
| 1777691029 | 5° C | 92% | 1012.5 hPa | 0 mm | - | - | - |
| 1777690058 | 5° C | 93% | 1012.7 hPa | 0 mm | - | - | - |
| 1777688878 | 5° C | 94% | 1012.9 hPa | 0 mm | - | - | - |
| 1777687738 | 5° C | 94% | 1013.2 hPa | 0 mm | - | - | - |
| 1777686783 | 4.44° C | 93% | 1013.1 hPa | 0 mm | - | - | - |
| 1777685738 | 5° C | 92% | 1013.1 hPa | 0 mm | - | - | - |
| 1777684583 | 4.44° C | - | - | - | - | - | - |
| 1777684578 | 5° C | 93% | 1013.2 hPa | 0 mm | - | - | - |
| 1777683479 | 5.56° C | 89% | 1014 hPa | 0 mm | - | - | - |
| 1777682487 | 5.56° C | 88% | 1014.1 hPa | 0 mm | - | - | - |
| 1777682483 | 5.56° C | 88% | 1014.1 hPa | 0 mm | - | - | - |
| 1777681408 | 5.56° C | 87% | 1014.2 hPa | 0 mm | - | - | - |
| 1777680236 | - | - | - | - | - | - | - |
| 1777680229 | 5.56° C | 87% | 1014.4 hPa | 0 mm | - | - | - |
| 1777679093 | 5.56° C | 87% | 1014.3 hPa | 0 mm | - | - | - |
| 1777677978 | 6.11° C | 85% | 1014.4 hPa | 0 mm | - | - | - |
| 1777676779 | 6.11° C | 84% | 1014.3 hPa | 0 mm | - | - | - |
| 1777675753 | 6.67° C | 80% | 1014.4 hPa | 0 mm | - | - | - |
| 1777674744 | 7.22° C | 79% | 1014.6 hPa | 0 mm | - | - | - |
| 1777673740 | 7.78° C | 75% | 1014.7 hPa | 0 mm | - | - | - |
| 1777672563 | 7.78° C | 75% | 1014.8 hPa | 0 mm | - | - | - |
* Rain latest hour (hover to see other rain measurements)
** Current wind speed in m/s (hover to see current wind gust speed)